Decatur Airport
KDEC : now visible

Airfield :











YOU CAN JOIN US ON...

 
LOGIN :

Register | Disclaimer

   EN    FR    IT 

 









Legend :    VFR   Marginal VFR   IFR   Intensive IFR   Very Intensive IFR
Visi :
Ceiling :
>= 8 km
>= 3000ft
5 to 8 km
1000 to 3000 ft
1500m to 5 km
500 to 1000 ft
800 to 1500m
200 to 500 ft
< 800m
< 200 ft
Symbols :   Thunderstorms  Fog  Heavy snow  Heavy precipitations  Wind > 20 kt






- Airport Elevation : 682 ft
- IATA code : DEC


KDEC - Decatur

CURRENT METAR :
  • 180554Z AUTO 18012KT 10SM CLR 26/18 A2988 RMK AO2 SLP111 T02560183 10311 20256 403220122 56023

EXPIRED METARs :
  • 180454Z AUTO 17014G19KT 10SM CLR 26/18 A2989 RMK AO2 SLP115 T02610178
  • 180354Z AUTO 16008KT 10SM CLR 26/18 A2993 RMK AO2 SLP128 T02560178

TAF KDEC
Valid from the 18 at 06:00 until the 19 at 06:00 UTC


180520Z 1806/1906 17011KT P6SM SCT180 BKN250
FM181100 21010KT P6SM SCT120 BKN180
FM181400 24014G20KT P6SM SCT120
FM181900 27013KT P6SM BKN120
FM190400 22006KT P6SM VCTS BKN045CB
KZKC FIR / North America



MET'MAP, your aeronautical weather chart ! - Copyright ORBIFLY December 2007 - Disclaimer

ORBIFLY MET'MAP TEAM :

Programming & Development : Alexandra Zaïnal
Concept & original design : Baudouin d'Aumeries
Assistance for programming : Marc-Olivier Méhu
Technical & hardware support : Manuel Goepfert

Contact : metmap@orbifly.com




SOURCES & CREDITS :

   NOAA       Earth
Advisory